Le Mars, IA

11:49 PM CDT on March 26, 2017 (GMT -0500)
Le Mars Municipal

Weather History for KLRJ - May, 2014

Change the Weather History Date:

Friday, May 9, 2014

  Actual Average Record
Temperature  
Mean Temperature 56 °F -  
Max Temperature 66 °F 72 °F 93 °F (2011)
Min Temperature 44 °F 45 °F 32 °F (1980)
Degree Days  
Heating Degree Days 9    
Growing Degree Days 6 (Base 50)    
Moisture  
Dew Point 37 °F    
Average Humidity 56    
Maximum Humidity 87    
Minimum Humidity 26    
Precipitation  
Precipitation 0.00 in - - ()
Sea Level Pressure  
Sea Level Pressure 29.79 in    
Wind  
Wind Speed 13 mph (WNW)    
Max Wind Speed 20 mph    
Max Gust Speed 30 mph    
Visibility 10 miles    
Events      
Averages and records for this station are not official NWS values.
T = Trace of Precipitation, MM = Missing Value Source: NWS Daily Summary

Daily Weather History Graph

Daily Weather History Graph

Search for Another Location

Airport or City:

Trip Planner

Search our weather history database for the weather conditions in past years. The results will help you decide how hot, cold, wet, or windy it might be!

Date:

Astronomy

May. 09, 2014 Rise Set
Actual Time 6:08 AM CDT 8:34 PM CDT
Civil Twilight 5:37 AM CDT 9:06 PM CDT
Nautical Twilight 4:57 AM CDT 9:45 PM CDT
Astronomical Twilight 4:13 AM CDT 10:30 PM CDT
Moon 3:25 PM CDT (5/9) 3:19 AM CDT (5/9)
Length of Visible Light 15h 29m
Length of Day
14h 25m
Waxing Gibbous, 74% of the Moon is Illuminated
May 9
Waxing Gibbous
May 14
Full
May 21
Last Quarter
May 28
New
Jun 5
First Quarter

Hourly Weather History & Observations

Time (CDT) Temp. Windchill Dew Point Humidity Pressure Visibility Wind Dir Wind Speed Gust Speed Precip Events Conditions
12:15 AM 50.0 °F - 44.6 °F 82% 29.74 in 10.0 mi West 12.7 mph 20.7 mph N/A   Unknown
12:35 AM 50.0 °F - 44.6 °F 82% 29.74 in 10.0 mi WNW 19.6 mph 26.5 mph N/A   Unknown
12:55 AM 48.2 °F - 44.6 °F 87% 29.73 in 10.0 mi WNW 17.3 mph 26.5 mph N/A   Unknown
1:15 AM 48.2 °F - 44.6 °F 87% 29.73 in 10.0 mi WNW 17.3 mph 24.2 mph N/A   Unknown
1:35 AM 48.2 °F - 44.6 °F 87% 29.74 in 10.0 mi WNW 15.0 mph 21.9 mph N/A   Unknown
1:55 AM 48.2 °F - 44.6 °F 87% 29.74 in 10.0 mi West 12.7 mph 20.7 mph N/A   Unknown
2:15 AM 48.2 °F - 42.8 °F 82% 29.74 in 10.0 mi West 16.1 mph 24.2 mph N/A   Unknown
2:35 AM 48.2 °F - 42.8 °F 82% 29.75 in 10.0 mi West 16.1 mph 23.0 mph N/A   Unknown
2:55 AM 48.2 °F - 42.8 °F 82% 29.75 in 10.0 mi WNW 18.4 mph 26.5 mph N/A   Unknown
3:15 AM 48.2 °F - 42.8 °F 82% 29.75 in 10.0 mi WNW 17.3 mph - N/A   Unknown
3:35 AM 48.2 °F - 42.8 °F 82% 29.75 in 10.0 mi WNW 17.3 mph 25.3 mph N/A   Unknown
3:55 AM 46.4 °F 39.5 °F 42.8 °F 87% 29.76 in 10.0 mi WNW 17.3 mph 26.5 mph N/A   Unknown
4:15 AM 46.4 °F 41.5 °F 42.8 °F 87% 29.76 in 10.0 mi WNW 10.4 mph 20.7 mph N/A   Unknown
4:35 AM 46.4 °F 40.7 °F 42.8 °F 87% 29.77 in 10.0 mi WNW 12.7 mph 19.6 mph N/A   Unknown
4:55 AM 46.4 °F 40.4 °F 42.8 °F 87% 29.77 in 10.0 mi WNW 13.8 mph 21.9 mph N/A   Unknown
5:15 AM 46.4 °F 40.1 °F 42.8 °F 87% 29.77 in 10.0 mi WNW 15.0 mph - N/A   Unknown
5:35 AM 46.4 °F 40.4 °F 41.0 °F 81% 29.77 in 10.0 mi WNW 13.8 mph - N/A   Unknown
5:55 AM 46.4 °F 41.1 °F 41.0 °F 81% 29.78 in 10.0 mi WNW 11.5 mph - N/A   Unknown
6:15 AM 46.4 °F 40.4 °F 41.0 °F 81% 29.78 in 10.0 mi WNW 13.8 mph 19.6 mph N/A   Unknown
6:35 AM 46.4 °F 40.1 °F 41.0 °F 81% 29.78 in 10.0 mi WNW 15.0 mph 21.9 mph N/A   Unknown
6:55 AM 46.4 °F 41.5 °F 41.0 °F 81% 29.79 in 10.0 mi NW 10.4 mph 17.3 mph N/A   Unknown
7:15 AM 46.4 °F 41.9 °F 41.0 °F 81% 29.80 in 10.0 mi WNW 9.2 mph 15.0 mph N/A   Unknown
7:35 AM 46.4 °F 40.1 °F 41.0 °F 81% 29.81 in 10.0 mi WNW 15.0 mph - N/A   Unknown
7:55 AM 48.2 °F - 41.0 °F 76% 29.81 in 10.0 mi WNW 13.8 mph 20.7 mph N/A   Unknown
8:15 AM 48.2 °F - 41.0 °F 76% 29.81 in 10.0 mi WNW 12.7 mph 19.6 mph N/A   Unknown
8:35 AM 50.0 °F - 39.2 °F 66% 29.82 in 10.0 mi WNW 16.1 mph 23.0 mph N/A   Unknown
8:55 AM 50.0 °F - 39.2 °F 66% 29.83 in 10.0 mi WNW 17.3 mph 26.5 mph N/A   Unknown
9:15 AM 51.8 °F - 39.2 °F 62% 29.83 in 10.0 mi WNW 16.1 mph - N/A   Unknown
9:35 AM 53.6 °F - 39.2 °F 58% 29.83 in 10.0 mi WNW 16.1 mph - N/A   Unknown
9:55 AM 53.6 °F - 37.4 °F 54% 29.83 in 10.0 mi WNW 15.0 mph 24.2 mph N/A   Unknown
10:15 AM 55.4 °F - 37.4 °F 51% 29.83 in 10.0 mi West 13.8 mph 20.7 mph N/A   Unknown
10:35 AM 55.4 °F - 35.6 °F 47% 29.83 in 10.0 mi WNW 17.3 mph 29.9 mph N/A   Unknown
11:15 AM 57.2 °F - 35.6 °F 44% 29.82 in 10.0 mi WNW 11.5 mph 24.2 mph N/A   Unknown
11:35 AM 59.0 °F - 35.6 °F 42% 29.82 in 10.0 mi WNW 17.3 mph - N/A   Unknown
11:55 AM 59.0 °F - 33.8 °F 39% 29.82 in 10.0 mi WNW 13.8 mph 21.9 mph N/A   Unknown
12:15 PM 60.8 °F - 33.8 °F 36% 29.82 in 10.0 mi WNW 15.0 mph 24.2 mph N/A   Unknown
12:35 PM 60.8 °F - 33.8 °F 36% 29.82 in 10.0 mi WNW 12.7 mph 21.9 mph N/A   Unknown
12:55 PM 60.8 °F - 33.8 °F 36% 29.81 in 10.0 mi WNW 10.4 mph 21.9 mph N/A   Unknown
1:15 PM 62.6 °F - 33.8 °F 34% 29.81 in 10.0 mi WSW 11.5 mph 21.9 mph N/A   Unknown
1:35 PM 62.6 °F - 33.8 °F 34% 29.81 in 10.0 mi West 13.8 mph 21.9 mph N/A   Unknown
1:55 PM 62.6 °F - 33.8 °F 34% 29.81 in 10.0 mi West 12.7 mph 20.7 mph N/A   Unknown
2:15 PM 64.4 °F - 33.8 °F 32% 29.80 in 10.0 mi West 11.5 mph 21.9 mph N/A   Unknown
2:35 PM 64.4 °F - 33.8 °F 32% 29.80 in 10.0 mi West 10.4 mph 21.9 mph N/A   Unknown
2:55 PM 66.2 °F - 32.0 °F 28% 29.80 in 10.0 mi West 15.0 mph 20.7 mph N/A   Unknown
3:15 PM 64.4 °F - 32.0 °F 30% 29.80 in 10.0 mi West 10.4 mph 19.6 mph N/A   Unknown
3:35 PM 64.4 °F - 30.2 °F 28% 29.79 in 10.0 mi West 16.1 mph - N/A   Unknown
3:55 PM 66.2 °F - 30.2 °F 26% 29.79 in 10.0 mi WNW 8.1 mph 19.6 mph N/A   Unknown
4:15 PM 66.2 °F - 32.0 °F 28% 29.78 in 10.0 mi West 13.8 mph 25.3 mph N/A   Unknown
4:35 PM 66.2 °F - 32.0 °F 28% 29.78 in 10.0 mi WSW 13.8 mph - N/A   Unknown
4:55 PM 66.2 °F - 32.0 °F 28% 29.78 in 10.0 mi West 16.1 mph 21.9 mph N/A   Unknown
5:15 PM 66.2 °F - 32.0 °F 28% 29.78 in 10.0 mi West 12.7 mph 21.9 mph N/A   Unknown
5:35 PM 66.2 °F - 32.0 °F 28% 29.78 in 10.0 mi WNW 16.1 mph - N/A   Unknown
5:55 PM 66.2 °F - 32.0 °F 28% 29.78 in 10.0 mi West 12.7 mph 19.6 mph N/A   Unknown
6:15 PM 66.2 °F - 32.0 °F 28% 29.78 in 10.0 mi WNW 9.2 mph 17.3 mph N/A   Unknown
6:35 PM 66.2 °F - 32.0 °F 28% 29.78 in 10.0 mi WSW 8.1 mph 18.4 mph N/A   Unknown
6:55 PM 66.2 °F - 32.0 °F 28% 29.78 in 10.0 mi WNW 9.2 mph 15.0 mph N/A   Unknown
7:15 PM 66.2 °F - 32.0 °F 28% 29.78 in 10.0 mi WNW 8.1 mph - N/A   Unknown
7:35 PM 64.4 °F - 32.0 °F 30% 29.78 in 10.0 mi WNW 9.2 mph - N/A   Unknown
7:55 PM 64.4 °F - 33.8 °F 32% 29.78 in 10.0 mi WNW 4.6 mph - N/A   Unknown
8:15 PM 62.6 °F - 33.8 °F 34% 29.79 in 10.0 mi NW 3.5 mph - N/A   Unknown
8:35 PM 59.0 °F - 33.8 °F 39% 29.79 in 10.0 mi NNW 3.5 mph - N/A   Unknown
8:55 PM 57.2 °F - 33.8 °F 41% 29.79 in 10.0 mi Calm Calm - N/A   Unknown
9:15 PM 55.4 °F - 35.6 °F 47% 29.79 in 10.0 mi Calm Calm - N/A   Unknown
9:35 PM 55.4 °F - 35.6 °F 47% 29.79 in 10.0 mi Calm Calm - N/A   Unknown
9:55 PM 51.8 °F - 37.4 °F 58% 29.80 in 10.0 mi Calm Calm - N/A   Unknown
10:15 PM 50.0 °F - 35.6 °F 58% 29.81 in 10.0 mi Calm Calm - N/A   Unknown
10:35 PM 50.0 °F - 35.6 °F 58% 29.81 in 10.0 mi Calm Calm - N/A   Unknown
10:55 PM 48.2 °F - 35.6 °F 62% 29.82 in 10.0 mi Calm Calm - N/A   Unknown
11:15 PM 48.2 °F - 37.4 °F 66% 29.82 in 10.0 mi Calm Calm - N/A   Unknown
11:35 PM 48.2 °F - 35.6 °F 62% 29.82 in 10.0 mi Calm Calm - N/A   Unknown
11:55 PM 44.6 °F - 35.6 °F 71% 29.82 in 10.0 mi Calm Calm - N/A   Unknown